Hourly Data Report for March 08, 2017

PORT ALBERNI (AUT)
BRITISH COLUMBIA

49°18'59.700" N
124°55'36.600" W
76.20 m
1036B06
71475
WQC

Download Data

Hourly Data (March 2017)
Hourly Data Report for March 8, 2017
TIME
LST
Temp Definition
°C
Dew Point Definition
°C
Rel Hum Definition
%
Precip. Amount Definition
mm

Wind Dir Definition
10's deg

Wind Spd Definition
km/h
Visibility Definition
km
Stn Press Definition
kPa
Hmdx Definition


Wind Chill Definition


Weather Definition


00:00 -0.4 -0.5 99 0.0   0   100.61     LegendNANA
01:00 -0.4 -0.5 99 0.0 0 1   100.71   -1 LegendNANA
02:00 -0.6 -0.7 99 0.0   0   100.81     LegendNANA
03:00 -1.1 -1.2 99 0.0 29 1   100.85   -1 LegendNANA
04:00 -1.2 -1.3 99 0.0 31 3   100.90   -2 LegendNANA
05:00 -1.2 -1.3 99 0.0   0   100.96     LegendNANA
06:00 -1.0 -1.1 99 0.0 34 2   100.99   -2 LegendNANA
07:00 -1.2 -1.3 99 0.0 0 1   101.00   -2 LegendNANA
08:00 -0.5 -0.6 99 0.0 29 2   101.05   -1 LegendNANA
09:00 -0.3 -0.6 98 0.0 30 2   101.12   -1 LegendNANA
10:00 0.1 -0.8 94 0.0 27 3   101.13     LegendNANA
11:00 1.5 0.1 90 0.0 8 2   101.08     LegendNANA
12:00 3.8 1.2 83 0.0 7 3   101.01     LegendNANA
13:00 3.5 -0.3 76 0.0 18 9   100.98     LegendNANA
14:00 3.0 1.8 92 1.6 9 10   100.93     LegendNANA
15:00 4.2 0.3 76 0.0 12 6   100.91     LegendNANA
16:00 3.4 0.4 81 0.0 22 9   100.92     LegendNANA
17:00 3.3 1.3 87 0.0 19 3   100.94     LegendNANA
18:00 2.6 0.6 87 0.0 18 7   100.93     LegendNANA
19:00 0.5 -0.7 92 0.0 16 4   100.95     LegendNANA
20:00 -0.9 -1.4 96 0.0 26 3   100.96   -2 LegendNANA
21:00 -0.4 -0.7 98 0.0 11 1   100.99   -1 LegendNANA
22:00 -0.2 -0.4 99 0.0 29 3   101.06   -1 LegendNANA
23:00 -0.4 -0.6 99 0.0 17 2   101.10   -1 LegendNANA

Notes on Data Quality.

Legend

  • E = Estimated
  • M = Missing
  • NA = Not Available*
  • [empty] = Indicates an unobserved value
Date modified: